This is the latest recevied weather packets stored in our database for station/object KK7MLS-13. If no packets are shown the sender has not sent any weather packets the latest 10 day(s).
| Time | Temp. | Humidity | Pressure | Rain* | Wind** | Luminosity | Snow |
|---|---|---|---|---|---|---|---|
| 1788573801 | 15.56° C | 88% | 1015.2 hPa | 0 mm | - | 18 W/m² | - |
| 1788573500 | 15.56° C | 87% | 1015.1 hPa | 0 mm | - | 19 W/m² | - |
| 1788573199 | 15.56° C | 86% | 1015 hPa | 0 mm | - | 19 W/m² | - |
| 1788572899 | 15.56° C | 85% | 1015 hPa | 0 mm | - | 21 W/m² | - |
| 1788572595 | 15.56° C | 85% | 1015 hPa | 0 mm | - | 25 W/m² | - |
| 1788572290 | 16.11° C | 85% | 1014.8 hPa | 0 mm | - | 31 W/m² | - |
| 1788571986 | 16.11° C | 85% | 1014.8 hPa | 0 mm | - | 43 W/m² | - |
| 1788571680 | 16.11° C | 88% | 1014.8 hPa | 0 mm | - | 58 W/m² | - |
| 1788571376 | 15.56° C | 88% | 1014.7 hPa | 0 mm | - | 65 W/m² | - |
| 1788571073 | 15.56° C | 87% | 1014.7 hPa | 0 mm | - | 62 W/m² | - |
| 1788570768 | 15.56° C | 87% | 1014.8 hPa | 0 mm | - | 52 W/m² | - |
| 1788570458 | 15.56° C | 87% | 1014.6 hPa | 0 mm | - | 49 W/m² | - |
| 1788570153 | 15.56° C | 87% | 1014.7 hPa | 0 mm | - | 50 W/m² | - |
| 1788569850 | 15.56° C | 86% | 1014.6 hPa | 0 mm | - | 51 W/m² | - |
| 1788569545 | 15.56° C | 86% | 1014.7 hPa | 0 mm | - | 53 W/m² | - |
| 1788569244 | 15.56° C | 86% | 1014.6 hPa | 0 mm | - | 56 W/m² | - |
| 1788568940 | 15.56° C | 84% | 1014.5 hPa | 0 mm | - | 59 W/m² | - |
| 1788568640 | 15.56° C | 87% | 1014.6 hPa | 0 mm | - | 68 W/m² | - |
| 1788568336 | 15.56° C | 86% | 1014.5 hPa | 0 mm | - | 83 W/m² | - |
| 1788568031 | 15.56° C | 87% | 1014.6 hPa | 0 mm | - | 78 W/m² | - |
| 1788567731 | 15.56° C | 86% | 1014.6 hPa | 0 mm | - | 74 W/m² | - |
| 1788567426 | 15.56° C | 86% | 1014.7 hPa | 0 mm | - | 63 W/m² | - |
| 1788567125 | 15.56° C | 87% | 1014.7 hPa | 0 mm | - | 58 W/m² | - |
| 1788566821 | 15.56° C | 88% | 1014.7 hPa | 0 mm | - | 49 W/m² | - |
| 1788566517 | 15.56° C | 88% | 1014.8 hPa | 0 mm | - | 36 W/m² | - |
* Rain latest hour (hover to see other rain measurements)
** Current wind speed in m/s (hover to see current wind gust speed)